This demonstration page uses our WeatherBlox Daily Observations layout. Learn more.

Left ArrowRight Arrow

40.92945, -100.16068

Hourly Observations for February 18, 2016

Temp ( °F °C ) Dew Point ( °F °C ) Humidity (%) Winds ( mph kmh ) Pressure ( in mb ) Visibility ( mi km ) Precip ( " mm )
12:15 am 00:15 Clear 42 5.5 32 undefined 68 68 ESE 9 15 29.85 1011 10 16.0934 N/A
12:35 am 00:35 Clear 41 5 32 undefined 70 70 ESE 9 15 29.88 1012 10 16.0934 N/A
12:55 am 00:55 Clear 41 4.8 32 undefined 71 71 ESE 9 15 29.83 1010 10 16.0934 N/A
1:15 am 01:15 Clear 40 4.6 32 undefined 72 72 ESE 9 15 29.83 1010 10 16.0934 N/A
1:35 am 01:35 Clear 39 4 32 -0.1 75 75 E 8 13 29.83 1010 10 16.0934 N/A
1:55 am 01:55 Clear 39 3.9 32 -0.1 75 75 ESE 7 11 29.83 1010 10 16.0934 N/A
2:15 am 02:15 Clear 38 3.3 31 -0.3 78 78 E 8 13 29.83 1010 10 16.0934 N/A
2:35 am 02:35 Clear 38 3.2 32 -0.2 79 79 ESE 7 11 29.8 1009 10 16.0934 N/A
2:55 am 02:55 Clear 38 3.1 32 -0.2 79 79 ESE 6 9 29.8 1009 10 16.0934 N/A
3:15 am 03:15 Clear 37 3 32 -0.1 80 80 E 6 9 29.77 1008 10 16.0934 N/A
3:35 am 03:35 Clear 38 3.2 32 undefined 80 80 ESE 6 9 29.77 1008 10 16.0934 N/A
3:55 am 03:55 Clear 39 4 32 undefined 75 75 ESE 7 11 29.74 1007 10 16.0934 N/A
4:15 am 04:15 Clear 42 5.3 33 0.5 71 71 SE 7 11 29.74 1007 10 16.0934 N/A
4:35 am 04:35 Clear 42 5.6 33 0.7 71 71 SE 8 13 29.74 1007 10 16.0934 N/A
4:55 am 04:55 Clear 36 2.2 32 -0.2 84 84 E 6 9 29.77 1008 10 16.0934 N/A
5:15 am 05:15 Clear 37 2.8 32 undefined 82 82 SE 3 6 29.77 1008 10 16.0934 N/A
5:35 am 05:35 Clear 39 3.9 32 0.2 77 77 ESE 3 6 29.71 1006 10 16.0934 N/A
5:55 am 05:55 Clear 39 3.8 33 0.5 79 79 SE 7 11 29.71 1006 10 16.0934 N/A
6:15 am 06:15 Clear 37 2.5 33 0.3 86 86 SE 6 9 29.74 1007 10 16.0934 N/A
6:35 am 06:35 Clear 38 3.6 33 0.3 79 79 SE 5 7 29.71 1006 10 16.0934 N/A
6:55 am 06:55 Clear 37 3 32 undefined 81 81 SE 6 9 29.71 1006 10 16.0934 N/A
7:15 am 07:15 Clear 37 2.6 32 -0.2 82 82 SE 3 6 29.71 1006 10 16.0934 N/A
7:35 am 07:35 Sunny 34 1.2 31 -0.4 89 89 SE 5 7 29.71 1006 10 16.0934 N/A
7:55 am 07:55 Sunny 37 2.5 32 0.1 84 84 SSE 5 7 29.71 1006 10 16.0934 N/A
8:15 am 08:15 Sunny 34 1 31 -0.7 89 89 N N/A 29.71 1006 10 16.0934 N/A
8:35 am 08:35 Sunny 35 1.4 32 undefined 91 91 NNW 3 6 29.71 1006 10 16.0934 N/A
8:55 am 08:55 Sunny 36 2.1 33 0.5 89 89 ENE 3 6 29.71 1006 10 16.0934 N/A
9:15 am 09:15 Sunny 38 3.1 34 1.1 87 87 N N/A 29.71 1006 10 16.0934 N/A
9:35 am 09:35 Sunny 41 5.2 36 2.3 82 82 S 5 7 29.68 1005 10 16.0934 N/A
9:55 am 09:55 Sunny 43 6.2 36 2 75 75 S 7 11 29.68 1005 10 16.0934 N/A
10:15 am 10:15 Sunny 45 7.1 36 2.1 71 71 SSW 7 11 29.65 1004 10 16.0934 N/A
10:35 am 10:35 Sunny 47 8.5 36 2.2 65 65 WSW 6 9 29.65 1004 10 16.0934 N/A
10:55 am 10:55 Sunny 49 9.5 37 2.7 63 63 WSW 6 9 29.62 1003 10 16.0934 N/A
11:15 am 11:15 Sunny 51 10.5 37 2.5 58 58 W 7 11 29.59 1002 10 16.0934 N/A
11:35 am 11:35 Sunny 52 11.1 37 2.8 57 57 W 5 7 29.56 1001 10 16.0934 N/A
11:55 am 11:55 Sunny 53 11.7 36 2.4 53 53 SW 3 6 29.56 1001 10 16.0934 N/A
12:15 pm 12:15 Sunny 55 12.9 37 2.9 51 51 S 7 11 29.53 1000 10 16.0934 N/A
12:35 pm 12:35 Sunny 56 13.2 37 2.6 49 49 S 6 9 29.53 1000 10 16.0934 N/A
12:55 pm 12:55 Sunny 56 13.5 37 2.8 49 49 SSW 5 7 29.5 999 10 16.0934 N/A
1:15 pm 13:15 Sunny 56 13.5 36 2.4 47 47 SSW 8 13 29.5 999 10 16.0934 N/A
1:35 pm 13:35 Sunny 58 14.3 37 2.8 46 46 SSW 8 13 29.5 999 10 16.0934 N/A
1:55 pm 13:55 Sunny 59 14.8 37 2.6 44 44 SSW 8 13 29.5 999 10 16.0934 N/A
2:15 pm 14:15 Sunny 60 15.5 37 2.6 42 42 S 8 13 29.47 998 10 16.0934 N/A
2:35 pm 14:35 Sunny 61 16 37 2.7 41 41 SSW 12 19 29.47 998 10 16.0934 N/A
2:55 pm 14:55 Sunny 60 15.8 37 2.5 41 41 SSW 12 19 29.47 998 10 16.0934 N/A
3:15 pm 15:15 Sunny 61 16.1 37 2.5 40 40 SSW 10 17 29.44 997 10 16.0934 N/A
3:35 pm 15:35 Sunny 61 16.1 36 2.1 39 39 WSW 9 15 29.47 998 10 16.0934 N/A
3:55 pm 15:55 Sunny 62 16.6 36 2.1 38 38 SW 8 13 29.44 997 10 16.0934 N/A
4:15 pm 16:15 Sunny 61 16.2 38 3.1 42 42 S 6 9 29.44 997 10 16.0934 N/A
4:35 pm 16:35 Sunny 61 16.2 36 2.3 39 39 SW 7 11 29.44 997 10 16.0934 N/A
4:55 pm 16:55 Sunny 63 17 36 2.2 37 37 SW 5 7 29.44 997 10 16.0934 N/A
5:15 pm 17:15 Sunny 62 16.9 36 2.2 37 37 W 6 9 29.44 997 10 16.0934 N/A
5:35 pm 17:35 Sunny 61 16.3 40 4.2 45 45 SSW 7 11 29.44 997 10 16.0934 N/A
5:55 pm 17:55 Sunny 56 13.5 38 3.6 51 51 S 7 11 29.44 997 10 16.0934 N/A
6:15 pm 18:15 Sunny 55 12.9 37 2.6 50 50 SW 6 9 29.44 997 10 16.0934 N/A
6:35 pm 18:35 Clear 49 9.5 38 3.2 65 65 N N/A 29.47 998 10 16.0934 N/A
6:55 pm 18:55 Clear 50 9.9 37 3 62 62 N N/A 29.47 998 10 16.0934 N/A
7:15 pm 19:15 Clear 51 10.4 37 2.8 60 60 E 5 7 29.47 998 10 16.0934 N/A
7:35 pm 19:35 Clear 53 11.5 38 3.2 57 57 SE 6 9 29.41 996 10 16.0934 N/A
7:55 pm 19:55 Clear 51 10.6 38 3.1 60 60 SE 7 11 29.44 997 10 16.0934 N/A
8:15 pm 20:15 Clear 51 10.6 37 3 60 60 SSE 7 11 29.44 997 10 16.0934 N/A
8:35 pm 20:35 Clear 51 10.4 37 3 60 60 SE 6 9 29.41 996 10 16.0934 N/A
8:55 pm 20:55 Clear 50 9.8 37 2.6 61 61 SSE 5 7 29.41 996 10 16.0934 N/A
9:15 pm 21:15 Clear 48 9 37 2.6 65 65 SSE 7 11 29.41 996 10 16.0934 N/A
9:35 pm 21:35 Clear 46 7.9 37 2.5 69 69 SE 5 7 29.41 996 10 16.0934 N/A
9:55 pm 21:55 Clear 40 4.5 34 0.9 78 78 SE 5 7 29.44 997 10 16.0934 N/A
10:15 pm 22:15 Clear 48 8.7 36 2.4 65 65 S 8 13 29.44 997 10 16.0934 N/A
10:35 pm 22:35 Clear 58 14.4 35 1.9 43 43 SSW 15 24 29.38 995 10 16.0934 N/A
10:55 pm 22:55 Clear 60 15.7 33 0.6 36 36 SW 14 22 29.38 995 10 16.0934 N/A
11:15 pm 23:15 Clear 62 16.4 32 undefined 33 33 W 30 48 29.38 995 10 16.0934 N/A
11:35 pm 23:35 Clear 59 15 34 1.2 39 39 W 26 43 29.47 998 10 16.0934 N/A
11:55 pm 23:55 Clear 58 14.5 31 -0.7 35 35 WNW 36 57 29.47 998 10 16.0934 N/A

Powered by AerisWeather